Overview Statistics Trail Chart Weather Telemetry Raw packets
 

This is the latest recevied weather packets stored in our database for station/object LEAS. If no packets are shown the sender has not sent any weather packets the latest 10 day(s).

<< 1 2 3 4 5 6 7 >>
Time Temp. Humidity Pressure Rain* Wind** Luminosity Snow
1788397203 17.22° C 100% 1024 hPa - - - -
1788392703 17.78° C 93% 1024 hPa - - - -
1788390003 17.78° C 93% 1024 hPa - - - -
1788387303 17.78° C 100% 1024 hPa - - - -
1788385503 18.89° C 93% 1024 hPa - - - -
1788383703 17.78° C 100% 1024 hPa - - - -
1788381004 18.89° C 93% 1024 hPa - - - -
1788380102 18.89° C 93% 1024 hPa - - - -
1788374703 22.22° C 78% 1024 hPa - - - -
1788373804 22.22° C 73% 1024 hPa - - - -
1788372903 22.22° C 73% 1024 hPa - - - -
1788368403 22.78° C 73% 1024 hPa - - - -
1788366604 22.78° C 73% 1024 hPa - - - -
1788364803 22.78° C 73% 1024 hPa - - - -
1788363903 22.78° C 73% 1024 hPa - - - -
1788363003 22.78° C 73% 1024 hPa - - - -
1788362103 22.78° C 73% 1024 hPa - - - -
1788358504 22.78° C 73% 1024 hPa - - - -
1788357603 22.78° C 73% 1024 hPa - - - -
1788356703 22.78° C 73% 1024 hPa - - - -
1788351303 22.22° C 73% 1024 hPa - - - -
1788346803 22.22° C 78% 1024 hPa - - - -
1788345903 22.22° C 78% 1024 hPa - - - -
1788344103 22.22° C 78% 1024 hPa - - - -
1788343204 22.78° C 68% 1023 hPa - - - -

* Rain since midnight (hover to see other rain measurements)
** Current wind speed in m/s (hover to see current wind gust speed)